This demonstration page uses our WeatherBlox Daily Observations layout. Learn more.

Left ArrowRight Arrow

38.89511, -77.03637

Hourly Observations for June 4, 2022

Temp ( °F °C ) Dew Point ( °F °C ) Humidity (%) Winds ( mph kmh ) Pressure ( in mb ) Visibility ( mi km ) Precip ( " mm )
12:52 am 00:52 Mostly Clear 68 20 53 11.7 59 59 SSW 3 6 29.90 1012 10 16 0.00 0.00
1:52 am 01:52 Partly Cloudy 67 19.4 52 11.1 59 59 SW 3 6 29.90 1013 10 16 0.00 0.00
2:52 am 02:52 Partly Cloudy 67 19.4 52 11.1 59 59 Calm 29.89 1012 10 16 0.00 0.00
3:52 am 03:52 Partly Cloudy 64 17.8 53 11.7 68 68 WSW 3 6 29.89 1012 10 16 0.00 0.00
4:52 am 04:52 Partly Cloudy 64 17.8 53 11.7 68 68 Calm 29.90 1012 10 16 0.00 0.00
5:52 am 05:52 Mostly Sunny 63 17.2 54 12.2 73 73 N 5 7 29.90 1013 10 16 0.00 0.00
6:52 am 06:52 Mostly Sunny 65 18.3 55 12.8 70 70 N 6 9 29.91 1013 10 16 0.00 0.00
7:52 am 07:52 Partly Cloudy 69 20.6 56 13.3 63 63 N 7 11 29.93 1014 10 16 0.00 0.00
8:52 am 08:52 Partly Cloudy 73 22.8 54 12.2 51 51 N 12 19 29.94 1014 10 16 0.00 0.00
9:52 am 09:52 Mostly Sunny 77 25 54 12.2 45 45 NNW 8 13 29.94 1014 10 16 0.00 0.00
10:52 am 10:52 Sunny 80 26.7 52 11.1 38 38 NW 8 13 29.94 1014 10 16 0.00 0.00
11:52 am 11:52 Mostly Sunny 82 27.8 49 9.4 32 32 NNW 12 19 29.95 1014 10 16 0.00 0.00
12:52 pm 12:52 Partly Cloudy 83 28.3 48 8.9 30 30 NW 9 15 29.93 1014 10 16 0.00 0.00
1:52 pm 13:52 Mostly Sunny 84 28.9 46 7.8 27 27 VRB 6 9 29.92 1013 10 16 0.00 0.00
2:52 pm 14:52 Partly Cloudy 84 28.9 43 6.1 24 24 NNW 14 22 29.91 1013 10 16 0.00 0.00
3:52 pm 15:52 Mostly Sunny 85 29.4 38 3.3 19 19 VRB 3 6 29.89 1012 10 16 0.00 0.00
4:52 pm 16:52 Mostly Sunny 83 28.3 45 7.2 26 26 VRB 6 9 29.88 1012 10 16 0.00 0.00
5:52 pm 17:52 Partly Cloudy 84 28.9 42 5.6 23 23 NNW 10 17 29.88 1012 10 16 0.00 0.00
6:52 pm 18:52 Partly Cloudy 82 27.8 43 6.1 25 25 N 8 13 29.88 1012 10 16 0.00 0.00
7:52 pm 19:52 Mostly Cloudy 79 26.1 45 7.2 30 30 N 7 11 29.88 1012 10 16 0.00 0.00
8:52 pm 20:52 Mostly Cloudy 77 25 45 7.2 32 32 N 7 11 29.88 1012 10 16 0.00 0.00
9:52 pm 21:52 Partly Cloudy 75 23.9 49 9.4 40 40 SSW 6 9 29.89 1012 10 16 0.00 0.00
10:52 pm 22:52 Partly Cloudy 73 22.8 49 9.4 43 43 SSW 5 7 29.90 1013 10 16 0.00 0.00
11:52 pm 23:52 Partly Cloudy 73 22.8 51 10.6 46 46 Calm 29.91 1013 10 16 0.00 0.00

Powered by AerisWeather